FW8143 Weather Reports


Display with metric or nautical units.
time (UTC)temp
F
wind
direction
speed
MPH
gust
MPH
rain 1hr
in
rain 24hr
in
rain mn
in
humidity
%
barometer
mb
20260510064913 60 13 5.0 9.0 0.00 0.00 0.00 25 1024.7
20260510064412 60 14 6.0 11.0 0.00 0.00 0.00 25 1024.7
20260510063912 60 40 7.0 11.0 0.00 0.00 0.00 25 1024.7
20260510063635 60 340 7.0 11.0 0.00 0.00 0.00 25 1024.7
20260510063132 60 16 7.0 11.0 0.00 0.00 0.00 25 1024.7
20260510062412 60 15 7.0 12.0 0.00 0.00 0.00 24 1024.7
20260510061912 60 15 7.0 12.0 0.00 0.00 0.00 24 1024.5
20260510061412 60 28 7.0 13.0 0.00 0.00 0.00 24 1024.4
20260510060913 60 10 8.0 13.0 0.00 0.00 0.00 24 1024.4
20260510060411 60 45 7.0 13.0 0.00 0.00 0.00 24 1024.5
20260510055907 60 5 7.0 12.0 0.00 0.00 0.00 24 1024.4
20260510055407 61 22 7.0 12.0 0.00 0.00 0.00 24 1024.4
20260510054907 61 12 8.0 13.0 0.00 0.00 0.00 24 1024.4
20260510054407 61 9 7.0 13.0 0.00 0.00 0.00 23 1024.4
20260510053906 61 31 6.0 12.0 0.00 0.00 0.00 23 1024.4
20260510053406 62 22 5.0 12.0 0.00 0.00 0.00 23 1024.4
20260510052904 62 35 5.0 9.0 0.00 0.00 0.00 22 1024.4
20260510052405 62 38 5.0 9.0 0.00 0.00 0.00 22 1024.4
20260510051905 62 44 5.0 9.0 0.00 0.00 0.00 21 1024.4
20260510051404 63 17 5.0 9.0 0.00 0.00 0.00 21 1024.4
20260510050905 63 36 6.0 11.0 0.00 0.00 0.00 21 1024.4
20260510050404 63 5 7.0 11.0 0.00 0.00 0.00 21 1024.3
20260510045904 63 355 7.0 12.0 0.00 0.00 0.00 21 1024.3
20260510045405 63 347 9.0 15.0 0.00 0.00 0.00 21 1024.3
20260510044904 63 32 8.0 15.0 0.00 0.00 0.00 21 1024.3
20260510044405 63 24 7.0 12.0 0.00 0.00 0.00 21 1024.4
20260510043904 63 355 7.0 13.0 0.00 0.00 0.00 20 1024.4
20260510043404 63 355 7.0 13.0 0.00 0.00 0.00 21 1024.4
20260510042904 63 355 7.0 13.0 0.00 0.00 0.00 20 1024.4
20260510042404 63 322 9.0 14.0 0.00 0.00 0.00 20 1024.4
20260510041858 63 32 9.0 14.0 0.00 0.00 0.00 20 1024.4
20260510041352 63 350 8.0 13.0 0.00 0.00 0.00 20 1024.4
20260510041108 64 5 8.0 12.0 0.00 0.00 0.00 19 1024.3
20260510040340 64 5 9.0 13.0 0.00 0.00 0.00 19 1024.2
20260510035834 64 355 9.0 13.0 0.00 0.00 0.00 18 1024.2
20260510035328 64 19 8.0 12.0 0.00 0.00 0.00 18 1024.2
20260510034822 64 24 9.0 14.0 0.00 0.00 0.00 17 1024.2
20260510034536 65 355 8.0 14.0 0.00 0.00 0.00 16 1024.2
20260510033816 65 19 7.0 11.0 0.00 0.00 0.00 15 1024.2
20260510033805 65 5 6.0 10.0 0.00 0.00 0.00 15 1024.0
20260510032814 66 5 5.0 9.0 0.00 0.00 0.00 15 1023.9
20260510032314 66 5 6.0 10.0 0.00 0.00 0.00 15 1023.9
20260510031814 66 355 5.0 10.0 0.00 0.00 0.00 15 1023.8
20260510031537 67 319 4.0 12.0 0.00 0.00 0.00 14 1023.8
20260510030813 67 319 4.0 12.0 0.00 0.00 0.00 14 1023.7
20260510030311 67 336 4.0 8.0 0.00 0.00 0.00 14 1023.4
20260510025810 67 327 3.0 8.0 0.00 0.00 0.00 13 1023.4
20260510025541 68 5 3.0 8.0 0.00 0.00 0.00 13 1023.3
20260510024810 68 331 4.0 10.0 0.00 0.00 0.00 13 1023.2
20260510024312 68 340 5.0 10.0 0.00 0.00 0.00 13 1023.0
20260510023810 68 333 5.0 12.0 0.00 0.00 0.00 13 1023.0
20260510023310 69 287 4.0 12.0 0.00 0.00 0.00 13 1023.0
20260510022810 69 5 4.0 10.0 0.00 0.00 0.00 14 1022.9
20260510022530 69 298 5.0 12.0 0.00 0.00 0.00 13 1022.9
20260510021811 69 317 6.0 12.0 0.00 0.00 0.00 13 1022.8
20260510021306 69 9 7.0 18.0 0.00 0.00 0.00 13 1022.6
20260510020759 70 208 7.0 18.0 0.00 0.00 0.00 13 1022.6
20260510020254 70 290 6.0 15.0 0.00 0.00 0.00 13 1022.6
20260510015748 71 298 6.0 15.0 0.00 0.00 0.00 13 1022.6
20260510015242 71 269 7.0 15.0 0.00 0.00 0.00 12 1022.5
20260510014735 71 284 6.0 15.0 0.00 0.00 0.00 12 1022.4
20260510014230 72 307 6.0 14.0 0.00 0.00 0.00 12 1022.4
20260510013723 72 301 7.0 17.0 0.00 0.00 0.00 12 1022.4
20260510013217 72 289 10.0 22.0 0.00 0.00 0.00 11 1022.1
20260510012711 73 203 12.0 22.0 0.00 0.00 0.00 11 1022.1
20260510012424 73 273 9.0 22.0 0.00 0.00 0.00 12 1022.3
20260510011923 73 290 7.0 20.0 0.00 0.00 0.00 12 1022.3
20260510011153 73 335 10.0 20.0 0.00 0.00 0.00 12 1022.0
20260510010647 73 317 8.0 17.0 0.00 0.00 0.00 12 1022.1
20260510010141 73 295 8.0 17.0 0.00 0.00 0.00 12 1022.0
20260510005854 73 355 9.0 19.0 0.00 0.00 0.00 12 1022.0
20260510005129 73 288 10.0 20.0 0.00 0.00 0.00 12 1022.0
20260510004623 73 298 9.0 20.0 0.00 0.00 0.00 11 1022.0
20260510004118 73 301 9.0 18.0 0.00 0.00 0.00 12 1022.0
20260510003611 74 324 8.0 18.0 0.00 0.00 0.00 11 1022.0
20260510003105 74 266 9.0 19.0 0.00 0.00 0.00 11 1022.0
20260510002559 74 0 9.0 19.0 0.00 0.00 0.00 11 1021.9
20260510002053 74 313 10.0 22.0 0.00 0.00 0.00 12 1022.0
20260510001547 74 304 11.0 22.0 0.00 0.00 0.00 11 1021.9
20260510001302 74 350 9.0 20.0 0.00 0.00 0.00 11 1021.8
20260510000535 74 258 9.0 20.0 0.00 0.00 0.00 12 1021.8
20260510000030 74 319 10.0 18.0 0.00 0.00 0.00 11 1021.9
20260509235523 74 251 9.0 17.0 0.00 0.00 0.00 11 1021.8
20260509235017 75 247 7.0 17.0 0.00 0.00 0.00 11 1021.8
20260509234512 75 285 9.0 19.0 0.00 0.00 0.00 11 1021.8
20260509234006 76 331 11.0 22.0 0.00 0.00 0.00 11 1021.8
20260509233727 76 0 10.0 22.0 0.00 0.00 0.00 11 1021.6
20260509232953 77 287 8.0 18.0 0.00 0.00 0.00 10 1021.6
20260509232708 77 284 9.0 21.0 0.00 0.00 0.00 10 1021.8
20260509231941 78 325 11.0 21.0 0.00 0.00 0.00 10 1021.9
20260509231435 78 279 11.0 26.0 0.00 0.00 0.00 10 1021.8
20260509230930 77 238 12.0 26.0 0.00 0.00 0.00 11 1021.6
20260509230647 77 282 12.0 26.0 0.00 0.00 0.00 10 1021.6
20260509230150 77 244 11.0 21.0 0.00 0.00 0.00 10 1021.8
20260509225427 77 248 11.0 24.0 0.00 0.00 0.00 10 1021.8
20260509224926 77 250 11.0 24.0 0.00 0.00 0.00 10 1021.6
20260509224424 78 295 9.0 18.0 0.00 0.00 0.00 10 1021.8
20260509224142 78 321 9.0 18.0 0.00 0.00 0.00 10 1021.9
20260509223424 78 269 9.0 18.0 0.00 0.00 0.00 10 1021.9
20260509222923 77 238 9.0 17.0 0.00 0.00 0.00 10 1022.0
20260509222646 77 213 9.0 23.0 0.00 0.00 0.00 10 1022.0
20260509221924 77 236 11.0 23.0 0.00 0.00 0.00 11 1022.1
20260509221424 77 248 13.0 24.0 0.00 0.00 0.00 10 1022.0
20260509221413 78 264 12.0 24.0 0.00 0.00 0.00 10 1021.9
20260509220423 78 234 10.0 28.0 0.00 0.00 0.00 11 1022.0
20260509220126 77 143 9.0 24.0 0.00 0.00 0.00 12 1022.0
20260509220013 78 261 9.0 28.0 0.00 0.00 0.00 10 1021.9
20260509214920 76 260 9.0 24.0 0.00 0.00 0.00 12 1022.1
20260509214414 75 261 6.0 17.0 0.00 0.00 0.00 13 1022.3
20260509213907 74 278 6.0 15.0 0.00 0.00 0.00 14 1022.1
20260509213402 74 293 7.0 15.0 0.00 0.00 0.00 13 1022.5
20260509212858 74 317 8.0 17.0 0.00 0.00 0.00 14 1022.5
20260509212357 74 267 9.0 17.0 0.00 0.00 0.00 13 1022.6
20260509211858 74 325 9.0 19.0 0.00 0.00 0.00 13 1022.8
20260509211358 74 287 9.0 19.0 0.00 0.00 0.00 13 1022.9
20260509210858 74 296 8.0 17.0 0.00 0.00 0.00 14 1022.8
20260509210357 74 196 7.0 15.0 0.00 0.00 0.00 14 1022.9
20260509205858 74 316 7.0 13.0 0.00 0.00 0.00 14 1022.9
20260509205355 74 300 8.0 18.0 0.00 0.00 0.00 14 1022.9
20260509204856 74 336 7.0 22.0 0.00 0.00 0.00 14 1023.0
20260509204356 74 296 7.0 22.0 0.00 0.00 0.00 14 1023.0
20260509204120 74 299 6.0 18.0 0.00 0.00 0.00 15 1023.2
20260509203357 74 340 8.0 18.0 0.00 0.00 0.00 14 1023.2
20260509202855 74 302 9.0 22.0 0.00 0.00 0.00 14 1023.4
20260509202351 74 13 7.0 22.0 0.00 0.00 0.00 14 1023.4
20260509201852 74 327 5.0 11.0 0.00 0.00 0.00 14 1023.4
20260509201354 74 261 5.0 12.0 0.00 0.00 0.00 14 1023.4
20260509201113 74 295 6.0 14.0 0.00 0.00 0.00 14 1023.5
20260509200352 74 306 8.0 14.0 0.00 0.00 0.00 14 1023.5
20260509195852 74 255 9.0 20.0 0.00 0.00 0.00 14 1023.5
20260509195352 74 346 7.0 20.0 0.00 0.00 0.00 14 1023.7
20260509194852 73 256 6.0 18.0 0.00 0.00 0.00 14 1023.8
20260509194353 74 279 5.0 18.0 0.00 0.00 0.00 14 1023.9
20260509193851 74 263 2.0 13.0 0.00 0.00 0.00 15 1024.0
20260509193352 74 138 5.0 16.0 0.00 0.00 0.00 15 1023.9
20260509192851 74 295 8.0 17.0 0.00 0.00 0.00 15 1024.0
20260509192613 74 298 6.0 17.0 0.00 0.00 0.00 15 1024.0
20260509191852 74 304 5.0 12.0 0.00 0.00 0.00 16 1023.9
20260509191351 74 250 5.0 12.0 0.00 0.00 0.00 15 1024.0
20260509190852 75 296 4.0 12.0 0.00 0.00 0.00 15 1024.2
20260509190353 75 323 4.0 13.0 0.00 0.00 0.00 15 1024.0
20260509185851 75 15 3.0 13.0 0.00 0.00 0.00 15 1024.3
20260509185351 75 342 3.0 10.0 0.00 0.00 0.00 15 1024.3
20260509184852 75 35 6.0 13.0 0.00 0.00 0.00 15 1024.4
20260509184352 75 246 7.0 15.0 0.00 0.00 0.00 15 1024.5
20260509183852 76 262 8.0 22.0 0.00 0.00 0.00 14 1024.7
20260509183350 75 171 8.0 22.0 0.00 0.00 0.00 14 1024.4
20260509182848 75 9 9.0 23.0 0.00 0.00 0.00 15 1024.5
20260509182347 75 311 10.0 23.0 0.00 0.00 0.00 15 1024.7
20260509182113 75 348 7.0 19.0 0.00 0.00 0.00 14 1024.8
20260509181345 74 285 5.0 14.0 0.00 0.00 0.00 15 1024.7
20260509180843 74 317 7.0 18.0 0.00 0.00 0.00 15 1024.9
20260509180342 74 157 8.0 23.0 0.00 0.00 0.00 15 1025.0
20260509175841 74 292 9.0 23.0 0.00 0.00 0.00 15 1024.9
20260509175340 74 304 10.0 23.0 0.00 0.00 0.00 15 1025.0
20260509174840 73 336 9.0 23.0 0.00 0.00 0.00 15 1025.0
20260509174338 73 23 9.0 22.0 0.00 0.00 0.00 15 1025.2
20260509173838 72 351 10.0 22.0 0.00 0.00 0.00 15 1025.3
20260509173338 72 301 9.0 19.0 0.00 0.00 0.00 16 1025.2
20260509172837 72 291 10.0 20.0 0.00 0.00 0.00 16 1025.2
20260509172337 72 336 10.0 20.0 0.00 0.00 0.00 15 1025.3
20260509171835 72 31 9.0 18.0 0.00 0.00 0.00 16 1025.2
20260509171336 71 304 10.0 19.0 0.00 0.00 0.00 16 1025.2
20260509170835 71 288 10.0 20.0 0.00 0.00 0.00 16 1025.3
20260509170553 71 329 12.0 20.0 0.00 0.00 0.00 15 1025.3
20260509165835 71 9 11.0 23.0 0.00 0.00 0.00 15 1025.2
20260509165335 71 293 10.0 23.0 0.00 0.00 0.00 16 1025.3
20260509164835 70 223 8.0 18.0 0.00 0.00 0.00 16 1025.2
20260509164557 70 5 8.0 16.0 0.00 0.00 0.00 17 1025.2
20260509163836 69 334 8.0 17.0 0.00 0.00 0.00 18 1025.3
20260509163600 69 331 7.0 17.0 0.00 0.00 0.00 19 1025.3
20260509162835 69 285 7.0 14.0 0.00 0.00 0.00 20 1025.3
20260509162328 68 355 6.0 14.0 0.00 0.00 0.00 19 1025.2
20260509162045 68 327 6.0 12.0 0.00 0.00 0.00 19 1025.2
20260509161550 67 12 6.0 14.0 0.00 0.00 0.00 21 1025.2
20260509160809 67 320 5.0 14.0 0.00 0.00 0.00 22 1025.3
20260509160303 66 318 5.0 12.0 0.00 0.00 0.00 23 1025.3
20260509155757 66 10 6.0 12.0 0.00 0.00 0.00 23 1025.3
20260509155514 65 318 5.0 10.0 0.00 0.00 0.00 24 1025.4
20260509154745 65 306 3.0 10.0 0.00 0.00 0.00 24 1025.3
20260509154238 64 308 3.0 10.0 0.00 0.00 0.00 25 1025.4
20260509153950 63 281 4.0 9.0 0.00 0.00 0.00 25 1025.4
20260509153227 63 255 3.0 9.0 0.00 0.00 0.00 26 1025.4
20260509152721 62 259 3.0 8.0 0.00 0.00 0.00 27 1025.4
20260509152215 61 303 2.0 8.0 0.00 0.00 0.00 28 1025.4
20260509151709 60 239 1.0 5.0 0.00 0.00 0.00 28 1025.4
20260509151202 60 242 2.0 5.0 0.00 0.00 0.00 28 1025.4
20260509150656 60 310 2.0 6.0 0.00 0.00 0.00 29 1025.3
20260509150414 59 252 1.0 6.0 0.00 0.00 0.00 29 1025.3
20260509145645 58 355 2.0 4.0 0.00 0.00 0.00 29 1025.4
20260509145403 58 275 2.0 5.0 0.00 0.00 0.00 29 1025.3
20260509144851 57 335 2.0 5.0 0.00 0.00 0.00 30 1025.3
20260509144127 57 262 3.0 8.0 0.00 0.00 0.00 30 1025.3
20260509143621 56 295 3.0 8.0 0.00 0.00 0.00 31 1025.4
20260509143121 56 234 2.0 7.0 0.00 0.00 0.00 32 1025.4
20260509142621 55 227 1.0 5.0 0.00 0.00 0.00 32 1025.4
20260509142121 54 255 2.0 4.0 0.00 0.00 0.00 32 1025.4
20260509141621 54 234 1.0 4.0 0.00 0.00 0.00 33 1025.3
20260509141121 53 134 0.0 2.0 0.00 0.00 0.00 33 1025.2
20260509140621 53 127 0.0 1.0 0.00 0.00 0.00 34 1025.2
20260509140121 53 93 0.0 0.0 0.00 0.00 0.00 36 1025.2
20260509135621 52 93 1.0 3.0 0.00 0.00 0.00 37 1025.2
20260509135121 52 93 2.0 3.0 0.00 0.00 0.00 37 1025.3
20260509134846 52 96 2.0 4.0 0.00 0.00 0.00 37 1025.2
20260509134119 51 96 2.0 4.0 0.00 0.00 0.00 37 1025.2
20260509133619 51 92 3.0 7.0 0.00 0.00 0.00 37 1025.2
20260509133119 51 80 3.0 7.0 0.00 0.00 0.00 37 1025.0
20260509132840 51 90 4.0 7.0 0.00 0.00 0.00 37 1025.0
20260509132119 51 105 4.0 7.0 0.00 0.00 0.00 37 1025.0
20260509131619 50 96 4.0 7.0 0.00 0.00 0.00 37 1025.0
20260509131339 50 93 4.0 7.0 0.00 0.00 0.00 37 1025.0
20260509130831 50 80 5.0 7.0 0.00 0.00 0.00 36 1024.9
20260509130106 50 90 4.0 7.0 0.00 0.00 0.00 36 1024.9
20260509125601 50 98 4.0 7.0 0.00 0.00 0.00 36 1024.9
20260509125055 50 98 4.0 7.0 0.00 0.00 0.00 36 1024.9
20260509124817 50 92 4.0 8.0 0.00 0.00 0.00 36 1024.8
20260509124043 50 91 4.0 8.0 0.00 0.00 0.00 36 1024.7
20260509123536 51 105 5.0 9.0 0.00 0.00 0.00 35 1024.5
20260509123031 51 62 5.0 9.0 0.00 0.00 0.00 35 1024.4
20260509122524 51 99 4.0 8.0 0.00 0.00 0.00 35 1024.4
20260509122018 51 86 4.0 7.0 0.00 0.00 0.00 35 1024.4
20260509121512 51 98 4.0 7.0 0.00 0.00 0.00 35 1024.3
20260509121007 51 80 4.0 8.0 0.00 0.00 0.00 35 1024.3
20260509120501 51 103 3.0 8.0 0.00 0.00 0.00 34 1024.2
20260509115954 51 88 2.0 7.0 0.00 0.00 0.00 34 1024.0
20260509115449 51 126 4.0 9.0 0.00 0.00 0.00 34 1024.0
20260509114943 51 104 5.0 9.0 0.00 0.00 0.00 34 1024.0
20260509114437 52 103 6.0 9.0 0.00 0.00 0.00 34 1023.9
20260509113933 52 113 6.0 10.0 0.00 0.00 0.00 34 1023.9
20260509113433 52 109 7.0 10.0 0.00 0.00 0.00 34 1023.9
20260509113201 52 113 7.0 12.0 0.00 0.00 0.00 34 1023.8
20260509112429 51 107 7.0 12.0 0.00 0.00 0.00 34 1023.8
20260509111929 51 114 7.0 12.0 0.00 0.00 0.00 34 1023.8
20260509111429 51 97 7.0 12.0 0.00 0.00 0.00 34 1023.9
20260509110929 51 73 7.0 10.0 0.00 0.00 0.00 34 1023.9
20260509110429 51 117 6.0 10.0 0.00 0.00 0.00 35 1023.9
20260509105929 51 127 6.0 10.0 0.00 0.00 0.00 35 1023.9
20260509105429 51 112 6.0 9.0 0.00 0.00 0.00 35 1023.8
20260509104929 51 102 6.0 9.0 0.00 0.00 0.00 35 1023.9
20260509104429 51 98 6.0 9.0 0.00 0.00 0.00 34 1023.8
20260509104147 51 117 6.0 9.0 0.00 0.00 0.00 34 1023.8
20260509103425 51 90 6.0 9.0 0.00 0.00 0.00 34 1023.8
20260509102924 51 82 5.0 8.0 0.00 0.00 0.00 34 1023.8
20260509102646 52 96 5.0 8.0 0.00 0.00 0.00 34 1023.8
20260509101925 52 117 5.0 8.0 0.00 0.00 0.00 34 1023.8
20260509101425 52 85 5.0 8.0 0.00 0.00 0.00 34 1023.8
20260509100926 52 94 6.0 9.0 0.00 0.00 0.00 33 1023.8
20260509100426 53 90 6.0 9.0 0.00 0.00 0.00 33 1023.8
20260509095926 53 114 6.0 9.0 0.00 0.00 0.00 33 1023.8
20260509095425 53 112 6.0 9.0 0.00 0.00 0.00 32 1023.8
20260509094924 53 73 6.0 8.0 0.00 0.00 0.00 32 1023.8
20260509094425 53 97 6.0 9.0 0.00 0.00 0.00 32 1023.8
20260509093925 54 110 7.0 9.0 0.00 0.00 0.00 31 1023.8
20260509093425 54 102 7.0 9.0 0.00 0.00 0.00 31 1023.8
20260509092924 54 82 6.0 9.0 0.00 0.00 0.00 31 1023.8
20260509092424 54 90 6.0 9.0 0.00 0.00 0.00 31 1023.8
20260509091925 54 92 6.0 9.0 0.00 0.00 0.00 31 1023.8
20260509091424 54 81 6.0 9.0 0.00 0.00 0.00 31 1023.8
20260509090919 54 83 6.0 8.0 0.00 0.00 0.00 31 1023.8
20260509090413 54 86 6.0 9.0 0.00 0.00 0.00 31 1023.7
20260509090130 54 76 7.0 10.0 0.00 0.00 0.00 31 1023.8
20260509085635 54 92 6.0 10.0 0.00 0.00 0.00 31 1023.7
20260509084913 54 119 6.0 9.0 0.00 0.00 0.00 31 1023.5
20260509084637 54 105 5.0 9.0 0.00 0.00 0.00 31 1023.7
20260509083912 54 88 4.0 8.0 0.00 0.00 0.00 31 1023.7
20260509083412 55 86 5.0 8.0 0.00 0.00 0.00 30 1023.7
20260509082912 55 98 4.0 8.0 0.00 0.00 0.00 30 1023.8
20260509082638 55 78 3.0 6.0 0.00 0.00 0.00 30 1023.7
20260509081911 55 86 3.0 6.0 0.00 0.00 0.00 30 1023.7
20260509081411 55 89 4.0 7.0 0.00 0.00 0.00 30 1023.5
20260509080910 55 74 4.0 9.0 0.00 0.00 0.00 30 1023.5
20260509080411 55 82 4.0 9.0 0.00 0.00 0.00 30 1023.7
20260509080127 55 66 5.0 8.0 0.00 0.00 0.00 30 1023.7
20260509075633 55 73 6.0 9.0 0.00 0.00 0.00 30 1023.7
20260509074911 55 62 7.0 9.0 0.00 0.00 0.00 30 1023.7
20260509074411 55 92 6.0 10.0 0.00 0.00 0.00 30 1023.5
20260509073906 55 91 6.0 10.0 0.00 0.00 0.00 30 1023.7
20260509073359 55 103 6.0 9.0 0.00 0.00 0.00 30 1023.7
20260509072853 55 82 6.0 9.0 0.00 0.00 0.00 30 1023.8
20260509072347 55 92 6.0 9.0 0.00 0.00 0.00 30 1023.8
20260509072102 55 78 6.0 9.0 0.00 0.00 0.00 30 1023.8
20260509071335 55 100 6.0 8.0 0.00 0.00 0.00 30 1023.9
20260509070829 55 98 6.0 9.0 0.00 0.00 0.00 30 1023.8
20260509070323 55 86 7.0 10.0 0.00 0.00 0.00 30 1023.8
20260509065817 55 101 7.0 10.0 0.00 0.00 0.00 30 1023.9
20260509065311 55 101 7.0 9.0 0.00 0.00 0.00 30 1024.0